This is the latest recevied weather packets stored in our database for station/object E23XBQ-1. If no packets are shown the sender has not sent any weather packets the latest 10 day(s).
| Time | Temp. | Humidity | Pressure | Rain* | Wind** | Luminosity | Snow |
|---|---|---|---|---|---|---|---|
| 1777994175 | 28.89° C | 77% | 973 hPa | - | - | 0 W/m² | - |
| 1777993550 | 28.89° C | 76% | 973 hPa | - | - | 0 W/m² | - |
| 1777992925 | 29.44° C | 72% | 973 hPa | - | - | 0 W/m² | - |
| 1777992301 | 29.44° C | 71% | 972 hPa | - | - | 0 W/m² | - |
| 1777991677 | 29.44° C | 70% | 972 hPa | - | - | 0 W/m² | - |
| 1777991052 | 29.44° C | 67% | 972 hPa | - | - | 0 W/m² | - |
| 1777990427 | 29.44° C | 67% | 971 hPa | - | - | 0 W/m² | - |
| 1777989797 | 29.44° C | 63% | 971 hPa | - | - | 0 W/m² | - |
| 1777989171 | 29.44° C | 63% | 971 hPa | - | - | 0 W/m² | - |
| 1777988546 | 29.44° C | 64% | 971 hPa | - | - | 0 W/m² | - |
| 1777987921 | 30° C | 66% | 970 hPa | - | - | 0 W/m² | - |
| 1777986671 | 30° C | 66% | 970 hPa | - | - | 0 W/m² | - |
| 1777986047 | 30° C | 67% | 970 hPa | - | - | 0 W/m² | - |
| 1777985423 | 30° C | 67% | 970 hPa | - | - | 0 W/m² | - |
| 1777984798 | 30° C | 69% | 970 hPa | - | - | 0 W/m² | - |
| 1777984174 | 29.44° C | 70% | 970 hPa | - | - | 0 W/m² | - |
| 1777983547 | 30° C | 71% | 969 hPa | - | - | 0 W/m² | - |
| 1777982922 | 30° C | 66% | 969 hPa | - | - | 0 W/m² | - |
| 1777982297 | 30.56° C | 63% | 969 hPa | - | - | 0 W/m² | - |
| 1777981672 | 31.11° C | 64% | 969 hPa | - | - | 0 W/m² | - |
| 1777981047 | 31.67° C | 60% | 969 hPa | - | - | 0 W/m² | - |
| 1777980423 | 31.67° C | 60% | 969 hPa | - | - | 0 W/m² | - |
| 1777979799 | 32.22° C | 57% | 969 hPa | - | - | 0 W/m² | - |
| 1777979175 | 32.22° C | 54% | 968 hPa | - | - | 0 W/m² | - |
| 1777978550 | 32.78° C | 53% | 968 hPa | - | - | 0 W/m² | - |
* Rain since midnight (hover to see other rain measurements)
** Current wind speed in m/s (hover to see current wind gust speed)